CW2433 Weather Reports


Display with metric or nautical units.
time (UTC)temp
F
wind
direction
speed
MPH
gust
MPH
rain 1hr
in
rain 24hr
in
rain mn
in
humidity
%
barometer
mb
20260509160509 71 248 4.0 9.0 0.00 0.00 0.00 33 1009.1
20260509160009 71 354 3.0 12.0 0.00 0.00 0.00 34 1009.3
20260509155509 70 312 5.0 14.0 0.00 0.00 0.00 33 1009.4
20260509154509 70 307 3.0 13.0 0.00 0.00 0.00 33 1009.8
20260509154009 69 302 2.0 12.0 0.00 0.00 0.00 36 1009.8
20260509153509 69 354 7.0 12.0 0.00 0.00 0.00 34 1009.9
20260509153009 68 333 6.0 12.0 0.00 0.00 0.00 34 1009.9
20260509152509 68 323 2.0 12.0 0.00 0.00 0.00 39 1009.7
20260509152009 67 286 2.0 14.0 0.00 0.00 0.00 40 1009.7
20260509151509 67 346 8.0 14.0 0.00 0.00 0.00 39 1009.8
20260509145509 67 338 10.0 20.0 0.00 0.00 0.00 42 1009.5
20260509144509 66 321 3.0 12.0 0.00 0.00 0.00 45 1009.1
20260509144009 65 213 1.0 3.0 0.00 0.00 0.00 45 1008.2
20260509143509 64 211 1.0 3.0 0.00 0.00 0.00 46 1008.3
20260509142509 63 138 1.0 2.0 0.00 0.00 0.00 50 1008.3
20260509142009 62 138 0.0 2.0 0.00 0.00 0.00 49 1008.4
20260509141009 62 137 0.0 3.0 0.00 0.00 0.00 55 1008.6
20260509140509 61 138 0.0 3.0 0.00 0.00 0.00 57 1008.7
20260509140010 61 138 1.0 3.0 0.00 0.00 0.00 58 1008.6
20260509135509 61 138 1.0 3.0 0.00 0.00 0.00 57 1008.5
20260509135009 60 137 0.0 2.0 0.00 0.00 0.00 59 1008.5
20260509134509 60 138 1.0 2.0 0.00 0.00 0.00 60 1008.4
20260509133509 59 137 0.0 2.0 0.00 0.00 0.00 64 1008.6
20260509133010 58 138 1.0 2.0 0.00 0.00 0.00 64 1008.5
20260509132509 57 138 1.0 2.0 0.00 0.00 0.00 66 1008.5
20260509132009 56 138 1.0 2.0 0.00 0.00 0.00 68 1008.7
20260509131009 55 137 1.0 2.0 0.00 0.00 0.00 70 1008.7
20260509130010 54 138 1.0 3.0 0.00 0.00 0.00 73 1008.5
20260509125510 53 138 1.0 3.0 0.00 0.00 0.00 74 1008.6
20260509125010 52 127 1.0 3.0 0.00 0.00 0.00 75 1008.7
20260509124510 52 331 1.0 2.0 0.00 0.00 0.00 77 1008.7
20260509124010 51 330 1.0 2.0 0.00 0.00 0.00 78 1008.7
20260509123010 49 331 0.0 1.0 0.00 0.00 0.00 79 1008.6
20260509122510 48 331 0.0 1.0 0.00 0.00 0.00 80 1008.5
20260509122010 48 330 1.0 1.0 0.00 0.00 0.00 80 1008.6
20260509120510 47 333 0.0 1.0 0.00 0.00 0.00 79 1008.5
20260509120010 46 0 0.0 1.0 0.00 0.00 0.00 79 1008.4
20260509115510 46 327 0.0 1.0 0.00 0.00 0.00 79 1008.4
20260509114009 46 330 0.0 0.0 0.00 0.00 0.00 77 1008.3
20260509113509 46 339 0.0 0.0 0.00 0.00 0.00 77 1008.3
20260509113009 46 334 0.0 0.0 0.00 0.00 0.00 77 1008.3
20260509112509 46 334 0.0 0.0 0.00 0.00 0.00 76 1008.3
20260509112009 46 334 0.0 0.0 0.00 0.00 0.00 76 1008.2
20260509111509 46 333 0.0 0.0 0.00 0.00 0.00 75 1008.1
20260509111009 46 333 0.0 0.0 0.00 0.00 0.00 74 1007.9
20260509110509 46 331 0.0 0.0 0.00 0.00 0.00 74 1008.0
20260509110008 47 317 0.0 0.0 0.00 0.00 0.00 74 1008.0
20260509105509 47 321 0.0 0.0 0.00 0.00 0.00 74 1008.1
20260509105009 47 322 0.0 0.0 0.00 0.00 0.00 74 1008.2
20260509104509 47 323 0.0 0.0 0.00 0.00 0.00 73 1008.1
20260509104009 47 323 0.0 0.0 0.00 0.00 0.00 73 1008.1
20260509103509 47 324 0.0 0.0 0.00 0.00 0.00 73 1008.2
20260509103010 47 326 0.0 0.0 0.00 0.00 0.00 73 1008.2
20260509102509 47 332 0.0 0.0 0.00 0.00 0.00 73 1008.1
20260509102009 48 326 0.0 0.0 0.00 0.00 0.00 73 1008.0
20260509101509 48 300 0.0 0.0 0.00 0.00 0.00 72 1008.0
20260509101009 48 0 0.0 0.0 0.00 0.00 0.00 71 1008.0
20260509100509 48 303 0.0 0.0 0.00 0.00 0.00 71 1008.0
20260509100009 48 300 0.0 0.0 0.00 0.00 0.00 70 1008.0
20260509095509 48 301 0.0 0.0 0.00 0.00 0.00 69 1008.1
20260509095009 48 303 0.0 0.0 0.00 0.00 0.00 68 1007.9
20260509094509 48 300 0.0 0.0 0.00 0.00 0.00 66 1007.9
20260509094009 48 306 0.0 0.0 0.00 0.00 0.00 66 1007.9
20260509093509 49 306 0.0 0.0 0.00 0.00 0.00 65 1007.8
20260509093012 49 307 0.0 0.0 0.00 0.00 0.00 64 1007.8
20260509092509 49 308 0.0 0.0 0.00 0.00 0.00 64 1007.8
20260509092009 49 312 0.0 0.0 0.00 0.00 0.00 63 1007.8
20260509091510 49 317 0.0 0.0 0.00 0.00 0.00 63 1007.9
20260509091009 50 0 0.0 0.0 0.00 0.00 0.00 63 1007.8
20260509090509 50 318 0.0 0.0 0.00 0.00 0.00 60 1007.7
20260509090010 50 319 0.0 0.0 0.00 0.00 0.00 60 1007.7
20260509085510 50 321 0.0 0.0 0.00 0.00 0.00 60 1007.7
20260509085010 51 310 0.0 0.0 0.00 0.00 0.00 60 1007.6
20260509084010 51 0 0.0 0.0 0.00 0.00 0.00 60 1007.7
20260509083510 51 329 0.0 0.0 0.00 0.00 0.00 58 1007.6
20260509083010 52 0 0.0 0.0 0.00 0.00 0.00 57 1007.6
20260509082509 52 0 0.0 0.0 0.00 0.00 0.00 56 1007.6
20260509082010 52 333 0.0 0.0 0.00 0.00 0.00 56 1007.7
20260509081010 53 345 0.0 0.0 0.00 0.00 0.00 56 1007.6
20260509080510 53 354 0.0 0.0 0.00 0.00 0.00 56 1007.6
20260509080010 54 348 0.0 0.0 0.00 0.00 0.00 54 1007.6
20260509075509 54 339 0.0 0.0 0.00 0.00 0.00 53 1007.6
20260509075010 55 334 0.0 0.0 0.00 0.00 0.00 52 1007.6
20260509073010 56 355 0.0 0.0 0.00 0.00 0.00 50 1007.5
20260509072510 57 343 0.0 0.0 0.00 0.00 0.00 49 1007.5
20260509071509 58 335 0.0 0.0 0.00 0.00 0.00 47 1007.5
20260509071010 59 335 0.0 0.0 0.00 0.00 0.00 46 1007.5
20260509070009 60 336 0.0 1.0 0.00 0.00 0.00 44 1007.4
20260509065508 61 315 0.0 2.0 0.00 0.00 0.00 44 1007.5
20260509065009 61 335 1.0 3.0 0.00 0.00 0.00 42 1007.4
20260509064512 62 336 1.0 3.0 0.00 0.00 0.00 42 1007.4
20260509064009 62 336 1.0 3.0 0.00 0.00 0.00 41 1007.4
20260509062009 64 10 3.0 6.0 0.00 0.00 0.00 38 1007.5
20260509061509 64 327 2.0 6.0 0.00 0.00 0.00 38 1007.4
20260509061009 64 349 3.0 6.0 0.00 0.00 0.00 38 1007.5
20260509060509 65 348 3.0 5.0 0.00 0.00 0.00 38 1007.5
20260509060009 65 5 2.0 7.0 0.00 0.00 0.00 38 1007.4
20260509055508 65 333 2.0 7.0 0.00 0.00 0.00 37 1007.4
20260509055009 65 17 3.0 6.0 0.00 0.00 0.00 37 1007.3
20260509054510 65 314 3.0 12.0 0.00 0.00 0.00 37 1007.3
20260509054009 65 320 2.0 12.0 0.00 0.00 0.00 37 1007.3
20260509053509 65 323 3.0 12.0 0.00 0.00 0.00 37 1007.2
20260509053010 65 313 1.0 6.0 0.00 0.00 0.00 37 1007.2
20260509052509 65 335 2.0 6.0 0.00 0.00 0.00 38 1007.2
20260509052009 65 333 2.0 6.0 0.00 0.00 0.00 38 1007.2
20260509051009 65 284 1.0 3.0 0.00 0.00 0.00 38 1007.1
20260509050509 65 349 1.0 3.0 0.00 0.00 0.00 39 1007.0
20260509045513 64 259 1.0 7.0 0.00 0.00 0.00 39 1007.1
20260509045010 64 261 2.0 7.0 0.00 0.00 0.00 39 1007.1
20260509044510 63 290 2.0 3.0 0.00 0.00 0.00 39 1007.0
20260509044010 63 267 2.0 3.0 0.00 0.00 0.00 40 1007.0
20260509043010 63 314 0.0 6.0 0.00 0.00 0.00 40 1007.0
20260509042510 62 276 2.0 6.0 0.00 0.00 0.00 41 1007.0
20260509042010 62 252 1.0 3.0 0.00 0.00 0.00 42 1007.0
20260509041010 62 246 2.0 6.0 0.00 0.00 0.00 41 1007.0
20260509040510 61 263 2.0 6.0 0.00 0.00 0.00 42 1007.0
20260509040010 61 265 2.0 3.0 0.00 0.00 0.00 42 1007.1
20260509035510 62 257 2.0 3.0 0.00 0.00 0.00 42 1007.1
20260509035010 62 0 0.0 2.0 0.00 0.00 0.00 42 1007.1
20260509034009 63 0 0.0 0.0 0.00 0.00 0.00 41 1007.0
20260509033009 63 0 0.0 0.0 0.00 0.00 0.00 40 1006.9
20260509032508 63 0 0.0 0.0 0.00 0.00 0.00 40 1006.8
20260509032009 64 0 0.0 0.0 0.00 0.00 0.00 41 1006.8
20260509031509 64 0 0.0 0.0 0.00 0.00 0.00 39 1006.8
20260509031009 64 0 0.0 1.0 0.00 0.00 0.00 40 1006.6
20260509030509 65 0 0.0 1.0 0.00 0.00 0.00 40 1006.6
20260509030009 65 0 0.0 0.0 0.00 0.00 0.00 40 1006.8
20260509025509 65 0 0.0 1.0 0.00 0.00 0.00 41 1006.8
20260509025009 65 0 0.0 3.0 0.00 0.00 0.00 41 1006.7
20260509024509 66 0 0.0 3.0 0.00 0.00 0.00 39 1006.7
20260509024009 66 0 1.0 3.0 0.00 0.00 0.00 40 1006.7
20260509023509 67 245 0.0 1.0 0.00 0.00 0.00 35 1006.5
20260509023009 67 245 0.0 0.0 0.00 0.00 0.00 34 1006.4
20260509022508 68 245 0.0 0.0 0.00 0.00 0.00 34 1006.1
20260509022009 68 245 0.0 0.0 0.00 0.00 0.00 32 1006.1
20260509021509 69 245 0.0 0.0 0.00 0.00 0.00 32 1006.1
20260509021009 69 245 0.0 0.0 0.00 0.00 0.00 32 1006.0
20260509020008 70 245 0.0 1.0 0.00 0.00 0.00 31 1006.0
20260509015509 71 245 0.0 1.0 0.00 0.00 0.00 31 1005.9
20260509015009 72 245 0.0 2.0 0.00 0.00 0.00 31 1005.9
20260509014513 73 245 0.0 2.0 0.00 0.00 0.00 31 1005.8
20260509014009 73 252 0.0 1.0 0.00 0.00 0.00 30 1005.8
20260509013509 74 252 0.0 3.0 0.00 0.00 0.00 29 1005.7
20260509013010 74 252 1.0 3.0 0.00 0.00 0.00 30 1005.7
20260509012009 75 258 1.0 2.0 0.00 0.00 0.00 28 1005.5
20260509011510 76 273 1.0 3.0 0.00 0.00 0.00 27 1005.5
20260509011009 76 286 1.0 3.0 0.00 0.00 0.00 27 1005.4
20260509010508 77 305 0.0 5.0 0.00 0.00 0.00 28 1005.4
20260509005509 77 287 0.0 3.0 0.00 0.00 0.00 27 1005.4
20260509005009 78 321 1.0 3.0 0.00 0.00 0.00 27 1005.4
20260509004509 78 332 2.0 5.0 0.00 0.00 0.00 28 1005.3
20260509004009 78 249 2.0 5.0 0.00 0.00 0.00 29 1005.3
20260509003510 79 240 2.0 5.0 0.00 0.00 0.00 29 1005.1
20260509003010 79 240 0.0 3.0 0.00 0.00 0.00 30 1005.1
20260509002508 79 240 1.0 3.0 0.00 0.00 0.00 30 1005.1
20260509002010 78 255 0.0 3.0 0.00 0.00 0.00 30 1005.0
20260509001510 78 231 1.0 3.0 0.00 0.00 0.00 30 1005.0
20260509001010 78 214 1.0 3.0 0.00 0.00 0.00 30 1005.1
20260508235509 78 206 1.0 3.0 0.00 0.00 0.00 31 1005.2
20260508234509 78 239 0.0 5.0 0.00 0.00 0.00 31 1005.2
20260508234010 78 238 2.0 5.0 0.00 0.00 0.00 29 1005.4
20260508233510 78 241 0.0 6.0 0.00 0.00 0.00 32 1005.4
20260508233010 77 241 1.0 6.0 0.00 0.00 0.00 31 1005.4
20260508232510 77 259 0.0 2.0 0.00 0.00 0.00 32 1005.5
20260508232010 77 259 1.0 5.0 0.00 0.00 0.00 33 1005.5
20260508230510 76 162 1.0 5.0 0.00 0.00 0.00 32 1005.6
20260508230010 76 128 1.0 3.0 0.00 0.00 0.00 32 1005.6
20260508225510 76 18 0.0 3.0 0.00 0.00 0.00 31 1005.7
20260508225009 76 5 0.0 3.0 0.00 0.00 0.00 33 1005.7
20260508224509 75 144 1.0 6.0 0.00 0.00 0.00 32 1005.8
20260508224009 75 99 1.0 6.0 0.00 0.00 0.00 32 1005.8
20260508223509 75 129 3.0 6.0 0.00 0.00 0.00 33 1005.9
20260508223009 76 71 1.0 12.0 0.00 0.00 0.00 32 1006.0
20260508222509 76 136 5.0 12.0 0.00 0.00 0.00 33 1006.1
20260508222009 77 87 5.0 12.0 0.00 0.00 0.00 33 1006.0
20260508221509 78 305 2.0 7.0 0.00 0.00 0.00 28 1006.1
20260508221009 79 257 3.0 6.0 0.00 0.00 0.00 28 1005.9
20260508220009 80 273 2.0 12.0 0.00 0.00 0.00 28 1005.8
20260508215009 80 218 2.0 7.0 0.00 0.00 0.00 29 1005.8
20260508214510 80 241 1.0 7.0 0.00 0.00 0.00 29 1005.8
20260508214009 80 217 1.0 7.0 0.00 0.00 0.00 29 1005.9
20260508213509 80 261 2.0 6.0 0.00 0.00 0.00 30 1005.9
20260508212509 79 219 1.0 3.0 0.00 0.00 0.00 27 1006.0
20260508211009 80 274 0.0 3.0 0.00 0.00 0.00 28 1006.3
20260508210509 79 246 1.0 5.0 0.00 0.00 0.00 28 1006.4
20260508205509 79 15 3.0 6.0 0.00 0.00 0.00 26 1006.5
20260508205009 79 157 2.0 6.0 0.00 0.00 0.00 27 1006.5
20260508204510 79 138 1.0 5.0 0.00 0.00 0.00 28 1006.7
20260508204009 79 134 1.0 5.0 0.00 0.00 0.00 28 1006.9
20260508203010 78 311 1.0 6.0 0.00 0.00 0.00 29 1006.9
20260508202509 78 260 3.0 6.0 0.00 0.00 0.00 29 1007.0
20260508202009 78 154 3.0 5.0 0.00 0.00 0.00 27 1007.1
20260508201510 78 92 1.0 3.0 0.00 0.00 0.00 27 1007.2
20260508201010 78 59 2.0 5.0 0.00 0.00 0.00 26 1007.4
20260508200509 78 89 1.0 5.0 0.00 0.00 0.00 27 1007.5
20260508195510 78 145 2.0 3.0 0.00 0.00 0.00 26 1007.6
20260508195009 78 207 2.0 5.0 0.00 0.00 0.00 31 1007.6
20260508194510 77 186 3.0 7.0 0.00 0.00 0.00 28 1007.7
20260508193510 77 154 2.0 9.0 0.00 0.00 0.00 28 1007.8
20260508192510 77 133 2.0 6.0 0.00 0.00 0.00 27 1007.9
20260508191510 77 172 3.0 9.0 0.00 0.00 0.00 28 1008.1
20260508190510 78 159 2.0 5.0 0.00 0.00 0.00 28 1008.1
20260508190010 78 207 1.0 3.0 0.00 0.00 0.00 30 1008.1
20260508185510 78 185 2.0 3.0 0.00 0.00 0.00 29 1008.2
20260508185010 78 284 1.0 3.0 0.00 0.00 0.00 30 1008.2
20260508184510 78 174 1.0 7.0 0.00 0.00 0.00 29 1008.2
20260508184010 78 161 3.0 7.0 0.00 0.00 0.00 29 1008.2
20260508183510 78 154 1.0 8.0 0.00 0.00 0.00 30 1008.3
20260508183009 77 156 2.0 8.0 0.00 0.00 0.00 29 1008.4
20260508182509 77 120 2.0 5.0 0.00 0.00 0.00 28 1008.4
20260508181509 77 87 2.0 7.0 0.00 0.00 0.00 27 1008.7
20260508180509 76 149 1.0 5.0 0.00 0.00 0.00 30 1008.7
20260508180009 76 170 2.0 3.0 0.00 0.00 0.00 29 1008.8
20260508175509 76 230 2.0 3.0 0.00 0.00 0.00 30 1008.8
20260508174509 75 183 0.0 3.0 0.00 0.00 0.00 34 1008.9
20260508174009 74 161 1.0 3.0 0.00 0.00 0.00 34 1008.9
20260508173509 74 0 0.0 3.0 0.00 0.00 0.00 34 1009.1
20260508173009 73 9 1.0 3.0 0.00 0.00 0.00 32 1009.2
20260508172009 73 227 1.0 3.0 0.00 0.00 0.00 37 1009.3
20260508171509 72 132 1.0 2.0 0.00 0.00 0.00 35 1009.4
20260508171009 72 128 1.0 2.0 0.00 0.00 0.00 35 1009.4
20260508170509 71 132 0.0 2.0 0.00 0.00 0.00 38 1009.5
20260508170009 71 132 0.0 2.0 0.00 0.00 0.00 38 1009.5
20260508165509 71 132 0.0 2.0 0.00 0.00 0.00 38 1009.5
20260508164009 72 286 1.0 3.0 0.00 0.00 0.00 36 1009.5
20260508163509 72 128 1.0 6.0 0.00 0.00 0.00 39 1009.5
20260508163009 72 143 2.0 6.0 0.00 0.00 0.00 38 1009.5
20260508162509 72 135 1.0 5.0 0.00 0.00 0.00 40 1009.5
20260508162009 72 118 2.0 5.0 0.00 0.00 0.00 39 1009.5
20260508161510 71 159 2.0 5.0 0.00 0.00 0.00 42 1009.5
20260508161010 70 166 2.0 5.0 0.00 0.00 0.00 42 1009.7